[[{"header":{"parameterUnit":"m.s-1","parameterCategory":1,"la1":30.2991,"la2":30.254,"lo1":-89.0895,"lo2":-89.0444,"dy":0.0017,"dx":0.0017,"nx":28,"ny":28,"refTime":"2023-10-26T09:00:00:Z","depth":0,"parameterNumber":2,"parameterNumberName":"U-component_of_WINDS"},"data":[0,0,0,0,0,0,0,0,0,0,0,0,0,0,0,0,0,0,0,0,0,0,0,0,0,0,0,0,0,0,0,0,0,0,0,0,0,0,0,0,0,0,0,0,0,0,0,0,0,0,0,0,0,0,0,0,0,0,-3.8164,-3.8164,0,-3.8226,-3.8226,-3.8227,-3.8137,-3.8134,-3.8131,-3.8128,-3.8191,-3.8195,-3.82,0,0,0,0,0,0,0,0,0,0,0,0,0,-3.7969,-3.7973,-3.8164,-3.8164,-3.8165,-3.8226,-3.8226,-3.8227,-3.8138,-3.8134,-3.813,-3.8126,-3.8189,-3.8195,-3.82,0,0,0,0,0,0,0,0,0,0,0,0,0,-3.8045,-3.7974,-3.8163,-3.8128,-3.8125,-3.8225,-3.8226,-3.8227,-3.8138,-3.8134,-3.8129,-3.8124,-3.8187,-3.8194,-3.8201,-3.8339,0,0,-3.8222,-3.8225,0,0,0,0,0,0,0,0,-3.804,-3.8052,-3.8132,-3.813,-3.8128,-3.8169,-3.8181,-3.8265,-3.814,-3.8133,-3.8128,-3.8122,-3.8187,-3.8194,-3.8216,-3.8342,-3.8345,-3.8223,-3.8227,-3.823,-3.8232,0,0,0,0,0,0,0,-3.8035,-3.8049,-3.8188,-3.8133,-3.8131,-3.8109,-3.8115,-3.8196,-3.8186,-3.8133,-3.8127,-3.8136,-3.8185,-3.821,-3.8217,-3.8346,-3.8223,-3.8229,-3.8233,-3.8236,-3.8591,-3.8596,0,0,0,0,0,0,-3.8034,-3.8045,-3.8186,-3.819,-3.8071,-3.8116,-3.8123,-3.816,-3.8185,-3.8184,-3.814,-3.8131,-3.82,-3.8209,-3.8219,-3.8383,-3.823,-3.8237,-3.8241,-3.8586,-3.8592,-3.8598,0,0,0,0,0,0,-3.803,-3.8048,-3.8184,-3.8116,-3.8131,-3.8125,-3.8168,-3.8164,-3.8188,-3.819,-3.8188,-3.8166,-3.8197,-3.8209,-3.831,-3.8383,-3.824,-3.8246,-3.8579,-3.8587,-3.8595,-3.8711,0,0,0,0,0,0,-3.8025,-3.8047,-3.8098,-3.8118,-3.8135,-3.8274,-3.8173,-3.8169,-3.8201,-3.819,-3.8214,-3.8214,-3.8194,-3.8301,-3.8317,-3.839,-3.8251,-3.8573,-3.8583,-3.8592,-3.8701,-3.8722,-3.8741,0,0,0,0,0,-3.8019,-3.8128,-3.8102,-3.8119,-3.82,-3.8278,-3.8288,-3.8263,-3.8207,-3.8259,-3.8261,-3.8213,-3.8374,-3.8312,-3.833,-3.8406,-3.8568,-3.858,-3.8591,-3.8692,-3.8718,-3.874,0,0,0,0,0,0,-3.8117,-3.813,-3.81,-3.822,-3.8249,-3.8263,-3.8327,-3.8292,-3.8337,-3.8325,-3.8293,-3.8299,-3.8408,-3.8417,-3.8348,-3.8542,-3.8461,-3.8477,-3.8532,-3.8556,-3.8576,-3.857,-3.8257,0,0,0,0,0,-3.8153,-3.8215,-3.8223,-3.8328,-3.8344,-3.8334,-3.8367,-3.8346,-3.8374,-3.8386,-3.8395,-3.8425,-3.8482,-3.852,-3.8572,-3.8703,-3.8707,-3.8765,-3.8785,-3.8801,-3.8814,-3.8886,-3.8911,-3.8636,-3.8636,-3.8636,0,0,-3.8226,-3.8241,-3.8282,-3.8348,-3.8368,-3.8434,-3.8345,-3.8417,-3.8466,-3.8397,-3.8493,-3.8502,-3.8533,-3.865,-3.8702,-3.8661,-3.8892,-3.8816,-3.8829,-3.8834,-3.89,-3.8927,-3.895,-3.8644,-3.8643,-3.8642,0,0,-3.8394,-3.8412,-3.8501,-3.8524,-3.8556,-3.8549,-3.8571,-3.8592,-3.8595,-3.8692,-3.8642,-3.87,-3.8799,-3.8824,-3.8849,-3.9032,-3.899,-3.905,-3.9153,-3.9222,-3.9244,-3.9263,-3.9328,-3.9352,-3.9064,-3.9065,-3.9065,0,-3.8481,-3.8578,-3.8552,-3.8629,-3.866,-3.8602,-3.8693,-3.8717,-3.8764,-3.8787,-3.8742,-3.8866,-3.8883,-3.9006,-3.9051,-3.9074,-3.9098,-3.9046,-3.9243,-3.9262,-3.9279,-3.9341,-3.9366,-3.9072,-3.9071,-3.907,-3.9069,0,-3.8685,-3.8753,-3.8822,-3.887,-3.8909,-3.8993,-3.898,-3.9023,-3.9,-3.8998,-3.9099,-3.9118,-3.9174,-3.9202,-3.918,-3.9323,-3.9297,-3.9248,-3.9165,-3.9313,-3.937,-3.9394,-3.9082,-3.9079,-3.9077,-3.9075,0,0,-3.8912,-3.8948,-3.8973,-3.8995,-3.9029,-3.9081,-3.9164,-3.922,-3.9257,-3.9294,-3.9362,-3.945,-3.9405,-3.9435,-3.9415,-3.9477,-3.9621,-3.942,-3.9421,-3.9456,-3.9781,-3.9816,-3.9844,-3.9595,-3.9599,-3.9603,-3.9778,0,-3.9079,-3.9221,-3.9201,-3.9338,-3.9402,-3.935,-3.9422,-3.9451,-3.9453,-3.9508,-3.9511,-3.9573,-3.951,-3.9528,-3.9587,-3.9591,-3.9685,-3.9578,-3.9658,-3.9661,-3.965,-3.9874,-3.9911,-4.0075,-3.98,-3.9804,-3.9807,0,-3.9292,-3.9337,-3.9481,-3.9506,-3.9532,-3.9597,-3.9648,-3.9702,-3.9734,-3.9732,-3.9767,-3.9737,-3.9821,-3.974,-3.9855,-3.9783,-3.9815,-3.9823,-3.9828,-3.9833,-3.9741,-3.9884,-4.0127,-4.0151,-3.9842,-3.9839,-3.9836,0,-3.9443,-3.954,-3.9639,-3.9659,-3.9692,-3.9739,-3.9755,-3.9783,-3.9819,-3.9864,-3.9887,-3.9942,-3.9972,-4.0015,-4.0002,-3.9944,-4.0121,-4.0038,-4.0121,-4.0122,-4.0158,-4.0156,-4.0409,-4.0182,-4.0182,-4.0181,-4.0181,0,-3.963,-3.972,-3.9707,-3.9767,-3.9867,-3.9845,-3.9945,-3.9954,-3.9981,-4.0043,-4.0003,-4.0062,-4.0042,-4.01,-4.0091,-4.0188,-4.0202,-4.0203,-4.0199,-4.0206,-4.0205,-4.0224,-4.0212,-4.0188,-4.0186,-4.0185,-4.0184,0,-3.9814,-3.9809,-3.9913,-3.9937,-3.9945,-4.0018,-4.0038,-4.0096,-4.0096,-4.0176,-4.0193,-4.0194,-4.0262,-4.0254,-4.0329,-4.0322,-4.0444,-4.0427,-4.0433,-4.0428,-4.0512,-4.0504,-4.0784,-4.082,-4.0572,-4.0574,-4.0576,0,-3.9933,-4.0001,-4.0033,-4.0072,-4.0092,-4.0155,-4.0192,-4.0175,-4.0215,-4.026,-4.0312,-4.0377,-4.0426,-4.0537,-4.0545,-4.0603,-4.0586,-4.0681,-4.0594,-4.06,-4.0587,-4.0582,-4.0589,-4.0697,-4.07,-4.0702,-4.0704,0,-4.0145,-4.014,-4.0195,-4.025,-4.0296,-4.0339,-4.0377,-4.0412,-4.0398,-4.0446,-4.0515,-4.0554,-4.0633,-4.0697,-4.0753,-4.0769,-4.0735,-4.0732,-4.0754,-4.076,-4.0761,-4.0761,-4.0478,-4.0724,-4.0722,-4.0721,-4.072,-4.0719,-4.0299,-4.0358,-4.039,-4.0453,-4.0481,-4.0519,-4.0575,-4.0584,-4.0641,-4.0703,-4.069,-4.0769,-4.0803,-4.0874,-4.0897,-4.0958,-4.0924,-4.0956,-4.0964,-4.0972,-4.0981,-4.0753,-4.0969,-4.0968,-4.0967,-4.0967,-4.0967,0,-4.0508,-4.0527,-4.0586,-4.0642,-4.0693,-4.0658,-4.07,-4.0744,-4.0814,-4.0849,-4.09,-4.098,-4.1044,-4.1058,-4.1119,-4.1166,-4.1152,-4.1182,-4.1178,-4.1182,-4.1009,-4.0983,-4.1193,-4.1193,-4.1193,-4.1193,-4.1193,-4.1193,-4.0622,-4.072,-4.072,-4.0832,-4.0851,-4.0927,-4.0954,-4.099,-4.1018,-4.111,-4.1163,-4.1172,-4.12,-4.1263,-4.132,-4.1323,-4.1347,-4.1384,-4.138,-4.1217,-4.1194,-4.1173,-4.1148,-4.1389,-4.1389,-4.1548,-4.155,-4.1551]},{"header":{"parameterUnit":"m.s-1","parameterCategory":1,"la1":30.2991,"la2":30.254,"lo1":-89.0895,"lo2":-89.0444,"dy":0.0017,"dx":0.0017,"nx":28,"ny":28,"refTime":"2023-10-26T09:00:00:Z","depth":0,"parameterNumber":3,"parameterNumberName":"V-component_of_WINDS"},"data":[0,0,0,0,0,0,0,0,0,0,0,0,0,0,0,0,0,0,0,0,0,0,0,0,0,0,0,0,0,0,0,0,0,0,0,0,0,0,0,0,0,0,0,0,0,0,0,0,0,0,0,0,0,0,0,0,0,0,1.1393,1.1394,0,1.1461,1.1462,1.1463,1.1508,1.1509,1.1509,1.1509,1.1574,1.1575,1.1577,0,0,0,0,0,0,0,0,0,0,0,0,0,1.1299,1.13,1.1393,1.1394,1.1395,1.1461,1.1462,1.1463,1.1508,1.1509,1.1509,1.1509,1.1574,1.1575,1.1577,0,0,0,0,0,0,0,0,0,0,0,0,0,1.135,1.1301,1.1393,1.1425,1.1429,1.1461,1.1462,1.1463,1.1508,1.1509,1.1509,1.151,1.1573,1.1575,1.1577,1.158,0,0,1.1584,1.1585,0,0,0,0,0,0,0,0,1.1347,1.1354,1.142,1.1423,1.1427,1.1477,1.1453,1.1502,1.1508,1.1478,1.1509,1.151,1.1541,1.1546,1.1557,1.1583,1.1586,1.1584,1.1585,1.1586,1.1587,0,0,0,0,0,0,0,1.1344,1.1351,1.142,1.1421,1.1425,1.1436,1.1443,1.1462,1.1506,1.1481,1.1484,1.1492,1.1543,1.1555,1.1559,1.1587,1.1584,1.1586,1.1587,1.1588,1.1621,1.1621,0,0,0,0,0,0,1.1335,1.1348,1.1418,1.1422,1.1388,1.1437,1.1446,1.146,1.1506,1.1513,1.1491,1.1494,1.1551,1.1557,1.1562,1.157,1.1586,1.1588,1.1589,1.1622,1.1621,1.1621,0,0,0,0,0,0,1.1333,1.1341,1.1415,1.1386,1.1396,1.1438,1.1454,1.1461,1.1474,1.1514,1.1521,1.1496,1.1552,1.1559,1.1576,1.1573,1.1589,1.1591,1.1622,1.1622,1.1621,1.1585,0,0,0,0,0,0,1.133,1.134,1.1342,1.1386,1.1397,1.1429,1.1454,1.1462,1.1478,1.1482,1.152,1.1527,1.1553,1.1573,1.1578,1.1576,1.1593,1.1623,1.1622,1.1621,1.1587,1.1583,1.158,0,0,0,0,0,1.1327,1.1328,1.1342,1.1351,1.1401,1.1429,1.1435,1.1467,1.1477,1.148,1.1506,1.1526,1.1572,1.1574,1.1581,1.1579,1.1623,1.1622,1.1621,1.1588,1.1584,1.1581,0,0,0,0,0,0,1.1281,1.1334,1.1351,1.1366,1.1393,1.1437,1.144,1.1461,1.1484,1.1486,1.1522,1.1531,1.1545,1.1564,1.1565,1.1585,1.16,1.16,1.1573,1.1569,1.1566,1.1561,1.1594,0,0,0,0,0,1.1273,1.1293,1.1337,1.1347,1.136,1.1398,1.1411,1.1433,1.1461,1.1472,1.1499,1.1525,1.1546,1.1558,1.1579,1.159,1.1599,1.1592,1.1589,1.1586,1.1586,1.1594,1.1592,1.1618,1.1618,1.1618,0,0,1.1256,1.1288,1.1297,1.1338,1.1362,1.138,1.1407,1.1424,1.1438,1.1474,1.1494,1.1514,1.1545,1.156,1.1568,1.1576,1.1581,1.1585,1.1582,1.1584,1.1593,1.159,1.1588,1.1617,1.1618,1.1618,0,0,1.1235,1.1261,1.1272,1.1296,1.1332,1.1358,1.136,1.1402,1.1418,1.1438,1.1466,1.1482,1.1517,1.1538,1.1554,1.1543,1.1563,1.1549,1.1532,1.154,1.1538,1.1536,1.1533,1.1531,1.1549,1.1548,1.1548,0,1.1209,1.1239,1.1275,1.1292,1.131,1.1346,1.1358,1.1378,1.1418,1.1429,1.1438,1.1484,1.1507,1.1528,1.1526,1.1537,1.1541,1.1544,1.1535,1.1534,1.1533,1.1531,1.1529,1.1547,1.1547,1.1547,1.1547,0,1.1206,1.1227,1.1232,1.1272,1.129,1.1304,1.1341,1.1355,1.1376,1.1401,1.1421,1.1451,1.1479,1.1486,1.1505,1.151,1.1514,1.1529,1.1544,1.1528,1.1526,1.1526,1.1544,1.1545,1.1545,1.1546,0,0,1.1157,1.1219,1.122,1.124,1.1283,1.1299,1.1315,1.1345,1.1357,1.1383,1.1398,1.1427,1.1442,1.1459,1.1482,1.1488,1.148,1.1503,1.1504,1.1498,1.1488,1.1477,1.1475,1.1493,1.1493,1.1493,1.1485,0,1.1143,1.1175,1.1209,1.1229,1.1249,1.1284,1.1298,1.1326,1.135,1.1369,1.1395,1.1416,1.1433,1.1444,1.1452,1.1479,1.1478,1.148,1.1506,1.1507,1.1498,1.1474,1.1462,1.1453,1.1485,1.1485,1.1485,0,1.113,1.1158,1.1181,1.1225,1.1234,1.1247,1.1278,1.1296,1.1328,1.1345,1.1366,1.1391,1.1409,1.1422,1.1448,1.1449,1.1461,1.1476,1.1477,1.148,1.1495,1.1477,1.1451,1.145,1.1484,1.1484,1.1484,0,1.1093,1.1136,1.1156,1.1172,1.1223,1.1231,1.1252,1.1285,1.1301,1.1328,1.1339,1.1367,1.1382,1.1402,1.1434,1.1441,1.1456,1.1472,1.147,1.1469,1.1472,1.1471,1.1447,1.1479,1.1479,1.1479,1.1479,0,1.1074,1.1087,1.1141,1.1153,1.1168,1.1207,1.122,1.1245,1.1274,1.1291,1.1322,1.1337,1.1378,1.1397,1.1422,1.144,1.1446,1.146,1.1466,1.1457,1.1455,1.1466,1.1467,1.1479,1.1479,1.1479,1.1479,0,1.1035,1.1072,1.1096,1.1143,1.1155,1.1165,1.1205,1.1218,1.1244,1.1265,1.1272,1.1313,1.1338,1.1371,1.1406,1.1422,1.1437,1.1447,1.1427,1.1431,1.1428,1.1428,1.141,1.141,1.1441,1.144,1.144,0,1.1021,1.1032,1.1081,1.1096,1.1117,1.114,1.1158,1.1196,1.1213,1.1252,1.126,1.1288,1.1313,1.1351,1.1382,1.1409,1.142,1.1412,1.1424,1.1416,1.1421,1.142,1.1422,1.1409,1.1408,1.1408,1.1408,0,1.0992,1.101,1.1036,1.1068,1.1089,1.1116,1.1144,1.1154,1.1197,1.1215,1.1242,1.1261,1.1298,1.1325,1.1357,1.1378,1.14,1.1404,1.1405,1.1396,1.1385,1.1392,1.1419,1.1404,1.1404,1.1405,1.1405,1.1405,1.0965,1.0978,1.1015,1.1043,1.1069,1.1095,1.111,1.1139,1.1163,1.1198,1.1218,1.1245,1.1278,1.1323,1.1343,1.1364,1.1372,1.1373,1.1374,1.1374,1.1371,1.1381,1.1369,1.1369,1.1369,1.137,1.137,0,1.0939,1.0965,1.0991,1.103,1.1052,1.1074,1.1106,1.1123,1.1146,1.1176,1.12,1.1232,1.1259,1.1294,1.1324,1.1333,1.1344,1.134,1.134,1.1344,1.1361,1.1358,1.1331,1.1331,1.1331,1.1331,1.1331,1.1331,1.0928,1.095,1.0973,1.1009,1.1035,1.1063,1.108,1.1104,1.1128,1.1163,1.1186,1.121,1.1242,1.1274,1.13,1.1309,1.1319,1.1311,1.1324,1.1339,1.1343,1.1346,1.1343,1.1313,1.1313,1.1305,1.1305,1.1305]}]]